| time (UTC) | temp F | wind direction | speed knots | gust knots | rain 1hr in | rain 24hr in | rain mn in | humidity % | barometer mb |
| 20260906142518 | 72 | 110 | 1.7 | 6.1 | 0.00 | 0.00 | 0.00 | 85 | 1019.4 |
| 20260906142008 | 71 | 105 | 1.7 | 6.1 | 0.00 | 0.00 | 0.00 | 86 | 1019.4 |
| 20260906141532 | 70 | 24 | 2.6 | 4.3 | 0.00 | 0.00 | 0.00 | 86 | 1019.4 |
| 20260906141014 | 70 | 322 | 1.7 | 7.0 | 0.00 | 0.00 | 0.00 | 86 | 1019.5 |
| 20260906140510 | 70 | 102 | 1.7 | 7.0 | 0.00 | 0.00 | 0.00 | 87 | 1019.6 |
| 20260906140035 | 70 | 42 | 0.9 | 5.2 | 0.00 | 0.00 | 0.00 | 88 | 1019.6 |
| 20260906135512 | 69 | 120 | 0.9 | 4.3 | 0.00 | 0.00 | 0.00 | 91 | 1019.6 |
| 20260906135004 | 68 | 113 | 1.7 | 5.2 | 0.00 | 0.00 | 0.00 | 90 | 1019.7 |
| 20260906134527 | 68 | 53 | 1.7 | 5.2 | 0.00 | 0.00 | 0.00 | 90 | 1019.8 |
| 20260906134008 | 68 | 38 | 1.7 | 5.2 | 0.00 | 0.00 | 0.00 | 90 | 1019.8 |
| 20260906133515 | 67 | 44 | 1.7 | 5.2 | 0.00 | 0.00 | 0.00 | 90 | 1019.8 |
| 20260906133031 | 67 | 60 | 1.7 | 5.2 | 0.00 | 0.00 | 0.00 | 90 | 1019.7 |
| 20260906132507 | 67 | 56 | 2.6 | 4.3 | 0.00 | 0.00 | 0.00 | 90 | 1019.6 |
| 20260906132013 | 67 | 343 | 0.9 | 3.5 | 0.00 | 0.00 | 0.00 | 91 | 1019.7 |
| 20260906131524 | 67 | 248 | 0.9 | 4.3 | 0.00 | 0.00 | 0.00 | 91 | 1019.7 |
| 20260906131007 | 66 | 11 | 0.9 | 4.3 | 0.00 | 0.00 | 0.00 | 91 | 1019.7 |
| 20260906130518 | 66 | 53 | 1.7 | 3.5 | 0.00 | 0.00 | 0.00 | 92 | 1019.8 |
| 20260906130024 | 65 | 72 | 1.7 | 3.5 | 0.00 | 0.00 | 0.00 | 92 | 1019.9 |
| 20260906125514 | 65 | 40 | 0.9 | 3.5 | 0.00 | 0.00 | 0.00 | 93 | 1019.8 |
| 20260906125014 | 65 | 55 | 0.9 | 1.7 | 0.00 | 0.00 | 0.00 | 93 | 1019.7 |
| 20260906124522 | 64 | 16 | 0.9 | 2.6 | 0.00 | 0.00 | 0.00 | 93 | 1019.6 |
| 20260906124014 | 64 | 42 | 0.0 | 2.6 | 0.00 | 0.00 | 0.00 | 93 | 1019.6 |
| 20260906123515 | 64 | 24 | 0.9 | 3.5 | 0.00 | 0.00 | 0.00 | 93 | 1019.6 |
| 20260906123020 | 64 | 28 | 0.0 | 3.5 | 0.00 | 0.00 | 0.00 | 93 | 1019.5 |
| 20260906122515 | 63 | 342 | 0.9 | 1.7 | 0.00 | 0.00 | 0.00 | 93 | 1019.4 |
| 20260906122010 | 63 | 9 | 0.0 | 1.7 | 0.00 | 0.00 | 0.00 | 93 | 1019.3 |
| 20260906121537 | 63 | 19 | 0.0 | 1.7 | 0.00 | 0.00 | 0.00 | 93 | 1019.2 |
| 20260906121019 | 63 | 342 | 0.9 | 1.7 | 0.00 | 0.00 | 0.00 | 93 | 1019.1 |
| 20260906120510 | 63 | 352 | 0.0 | 1.7 | 0.00 | 0.00 | 0.00 | 93 | 1019.1 |
| 20260906120034 | 63 | 352 | 0.0 | 1.7 | 0.00 | 0.00 | 0.00 | 93 | 1019.0 |
| 20260906115512 | 63 | 40 | 0.0 | 1.7 | 0.00 | 0.00 | 0.00 | 93 | 1018.9 |
| 20260906115006 | 63 | 40 | 0.0 | 1.7 | 0.00 | 0.00 | 0.00 | 93 | 1018.8 |
| 20260906114536 | 63 | 34 | 0.0 | 1.7 | 0.00 | 0.00 | 0.00 | 93 | 1018.8 |
| 20260906114012 | 63 | 32 | 0.0 | 1.7 | 0.00 | 0.00 | 0.00 | 93 | 1018.8 |
| 20260906113518 | 63 | 352 | 0.0 | 1.7 | 0.00 | 0.00 | 0.00 | 93 | 1018.7 |
| 20260906113029 | 63 | 33 | 0.0 | 2.6 | 0.00 | 0.00 | 0.00 | 93 | 1018.7 |
| 20260906112515 | 63 | 33 | 0.0 | 2.6 | 0.00 | 0.00 | 0.00 | 93 | 1018.7 |
| 20260906112017 | 63 | 54 | 0.0 | 2.6 | 0.00 | 0.00 | 0.00 | 93 | 1018.6 |
| 20260906111529 | 63 | 40 | 0.9 | 2.6 | 0.00 | 0.00 | 0.00 | 93 | 1018.5 |
| 20260906111008 | 63 | 27 | 0.9 | 2.6 | 0.00 | 0.00 | 0.00 | 93 | 1018.5 |
| 20260906110515 | 63 | 50 | 0.9 | 3.5 | 0.00 | 0.00 | 0.00 | 93 | 1018.5 |
| 20260906110025 | 63 | 30 | 0.0 | 3.5 | 0.00 | 0.00 | 0.00 | 93 | 1018.4 |
| 20260906105516 | 63 | 57 | 1.7 | 4.3 | 0.00 | 0.00 | 0.00 | 93 | 1018.3 |
| 20260906105015 | 63 | 43 | 0.9 | 4.3 | 0.00 | 0.00 | 0.00 | 93 | 1018.2 |
| 20260906104520 | 63 | 46 | 0.9 | 3.5 | 0.00 | 0.00 | 0.00 | 93 | 1018.2 |
| 20260906104016 | 64 | 43 | 0.9 | 3.5 | 0.00 | 0.00 | 0.00 | 93 | 1018.2 |
| 20260906103512 | 64 | 16 | 0.9 | 4.3 | 0.00 | 0.00 | 0.00 | 93 | 1018.1 |
| 20260906103017 | 64 | 40 | 1.7 | 4.3 | 0.00 | 0.00 | 0.00 | 93 | 1018.2 |
| 20260906102515 | 64 | 68 | 0.9 | 2.6 | 0.00 | 0.00 | 0.00 | 93 | 1018.2 |
| 20260906102014 | 64 | 17 | 0.9 | 1.7 | 0.00 | 0.00 | 0.00 | 93 | 1018.3 |
| 20260906101535 | 64 | 314 | 0.0 | 2.6 | 0.00 | 0.00 | 0.00 | 93 | 1018.4 |
| 20260906101013 | 64 | 33 | 0.9 | 2.6 | 0.00 | 0.00 | 0.00 | 92 | 1018.3 |
| 20260906100515 | 64 | 34 | 0.9 | 1.7 | 0.00 | 0.00 | 0.00 | 92 | 1018.3 |
| 20260906100035 | 64 | 5 | 0.0 | 1.7 | 0.00 | 0.00 | 0.00 | 92 | 1018.4 |
| 20260906095514 | 65 | 34 | 0.0 | 1.7 | 0.00 | 0.00 | 0.00 | 92 | 1018.3 |
| 20260906095008 | 65 | 9 | 0.0 | 2.6 | 0.00 | 0.00 | 0.00 | 92 | 1018.3 |
| 20260906094532 | 65 | 27 | 0.9 | 2.6 | 0.00 | 0.00 | 0.00 | 93 | 1018.3 |
| 20260906094014 | 65 | 44 | 0.9 | 1.7 | 0.00 | 0.00 | 0.00 | 92 | 1018.3 |
| 20260906093516 | 65 | 32 | 0.9 | 1.7 | 0.00 | 0.00 | 0.00 | 92 | 1018.2 |
| 20260906093033 | 65 | 352 | 0.9 | 0.9 | 0.00 | 0.00 | 0.00 | 92 | 1018.1 |
| 20260906092516 | 65 | 344 | 0.0 | 2.6 | 0.00 | 0.00 | 0.00 | 92 | 1018.0 |
| 20260906092018 | 65 | 36 | 0.9 | 2.6 | 0.00 | 0.00 | 0.00 | 92 | 1018.0 |
| 20260906091530 | 66 | 32 | 0.9 | 1.7 | 0.00 | 0.00 | 0.00 | 92 | 1018.0 |
| 20260906091007 | 66 | 41 | 0.0 | 3.5 | 0.00 | 0.00 | 0.00 | 92 | 1018.0 |
| 20260906090519 | 66 | 17 | 0.9 | 3.5 | 0.00 | 0.00 | 0.00 | 92 | 1018.0 |
| 20260906090030 | 66 | 60 | 0.9 | 2.6 | 0.00 | 0.00 | 0.00 | 92 | 1018.0 |
| 20260906085517 | 66 | 52 | 0.9 | 2.6 | 0.00 | 0.00 | 0.00 | 92 | 1018.0 |
| 20260906085014 | 66 | 31 | 0.9 | 2.6 | 0.00 | 0.00 | 0.00 | 92 | 1018.0 |
| 20260906084524 | 66 | 49 | 0.9 | 4.3 | 0.00 | 0.00 | 0.00 | 92 | 1018.0 |
| 20260906084021 | 66 | 51 | 0.9 | 4.3 | 0.00 | 0.00 | 0.00 | 92 | 1018.1 |
| 20260906083515 | 66 | 28 | 0.9 | 5.2 | 0.00 | 0.00 | 0.00 | 92 | 1018.0 |
| 20260906083019 | 66 | 78 | 0.9 | 5.2 | 0.00 | 0.00 | 0.00 | 92 | 1018.0 |
| 20260906082515 | 66 | 42 | 1.7 | 5.2 | 0.00 | 0.00 | 0.00 | 92 | 1018.0 |
| 20260906082014 | 66 | 55 | 0.9 | 5.2 | 0.00 | 0.00 | 0.00 | 92 | 1018.0 |
| 20260906081521 | 66 | 11 | 0.9 | 5.2 | 0.00 | 0.00 | 0.00 | 93 | 1018.0 |
| 20260906081003 | 66 | 42 | 0.0 | 5.2 | 0.00 | 0.00 | 0.00 | 93 | 1018.0 |
| 20260906080514 | 66 | 67 | 0.0 | 2.6 | 0.00 | 0.00 | 0.00 | 93 | 1018.1 |
| 20260906080019 | 66 | 48 | 0.9 | 2.6 | 0.00 | 0.00 | 0.00 | 93 | 1018.1 |
| 20260906075503 | 66 | 59 | 0.0 | 1.7 | 0.00 | 0.00 | 0.00 | 93 | 1018.1 |
| 20260906075008 | 66 | 66 | 0.0 | 1.7 | 0.00 | 0.00 | 0.00 | 93 | 1018.1 |
| 20260906074510 | 66 | 39 | 0.0 | 1.7 | 0.00 | 0.00 | 0.00 | 94 | 1018.0 |
| 20260906074003 | 66 | 64 | 0.0 | 1.7 | 0.00 | 0.00 | 0.00 | 94 | 1018.1 |
| 20260906073507 | 66 | 59 | 0.0 | 2.6 | 0.00 | 0.00 | 0.00 | 94 | 1018.2 |
| 20260906073008 | 65 | 26 | 0.0 | 2.6 | 0.00 | 0.00 | 0.00 | 94 | 1018.2 |
| 20260906072515 | 65 | 35 | 0.0 | 1.7 | 0.00 | 0.00 | 0.00 | 93 | 1018.2 |
| 20260906072006 | 65 | 75 | 0.9 | 1.7 | 0.00 | 0.00 | 0.00 | 93 | 1018.3 |
| 20260906071506 | 65 | 340 | 0.0 | 1.7 | 0.00 | 0.00 | 0.00 | 92 | 1018.2 |
| 20260906071012 | 65 | 339 | 0.0 | 1.7 | 0.00 | 0.00 | 0.00 | 92 | 1018.2 |
| 20260906070504 | 65 | 329 | 0.0 | 0.0 | 0.00 | 0.00 | 0.00 | 92 | 1018.3 |
| 20260906070005 | 65 | 329 | 0.0 | 0.0 | 0.00 | 0.00 | 0.00 | 92 | 1018.3 |
| 20260906065509 | 65 | 329 | 0.0 | 0.0 | 0.00 | 0.00 | 0.00 | 91 | 1018.4 |
| 20260906065004 | 65 | 329 | 0.0 | 1.7 | 0.00 | 0.00 | 0.00 | 91 | 1018.4 |
| 20260906064530 | 66 | 329 | 0.0 | 1.7 | 0.00 | 0.00 | 0.00 | 91 | 1018.6 |
| 20260906064007 | 66 | 329 | 0.0 | 1.7 | 0.00 | 0.00 | 0.00 | 91 | 1018.6 |
| 20260906063502 | 66 | 329 | 0.0 | 1.7 | 0.00 | 0.00 | 0.00 | 91 | 1018.6 |
| 20260906063023 | 66 | 329 | 0.0 | 1.7 | 0.00 | 0.00 | 0.00 | 91 | 1018.6 |
| 20260906062505 | 66 | 329 | 0.0 | 0.0 | 0.00 | 0.00 | 0.00 | 91 | 1018.5 |
| 20260906062004 | 67 | 329 | 0.0 | 0.0 | 0.00 | 0.00 | 0.00 | 90 | 1018.5 |
| 20260906061522 | 67 | 329 | 0.0 | 0.9 | 0.00 | 0.00 | 0.00 | 90 | 1018.5 |
| 20260906061007 | 67 | 329 | 0.0 | 0.9 | 0.00 | 0.00 | 0.00 | 90 | 1018.6 |
| 20260906060514 | 67 | 323 | 0.0 | 1.7 | 0.00 | 0.00 | 0.00 | 90 | 1018.5 |
| 20260906060021 | 67 | 323 | 0.9 | 1.7 | 0.00 | 0.00 | 0.00 | 90 | 1018.5 |
| 20260906055504 | 67 | 338 | 0.0 | 1.7 | 0.00 | 0.00 | 0.00 | 90 | 1018.5 |
| 20260906055011 | 68 | 313 | 0.9 | 1.7 | 0.00 | 0.00 | 0.00 | 90 | 1018.5 |
| 20260906054511 | 68 | 306 | 0.9 | 1.7 | 0.00 | 0.00 | 0.00 | 90 | 1018.4 |
| 20260906054016 | 68 | 336 | 0.9 | 1.7 | 0.00 | 0.00 | 0.00 | 90 | 1018.3 |
| 20260906053508 | 68 | 22 | 0.0 | 1.7 | 0.00 | 0.00 | 0.00 | 90 | 1018.2 |
| 20260906053010 | 68 | 38 | 0.0 | 1.7 | 0.00 | 0.00 | 0.00 | 90 | 1018.1 |
| 20260906052512 | 68 | 342 | 0.0 | 2.6 | 0.00 | 0.00 | 0.00 | 90 | 1018.1 |
| 20260906052011 | 68 | 22 | 0.0 | 2.6 | 0.00 | 0.00 | 0.00 | 90 | 1018.0 |
| 20260906051514 | 69 | 44 | 0.0 | 2.6 | 0.00 | 0.00 | 0.00 | 1018.0 | |
| 20260906051014 | 69 | 57 | 0.0 | 1.7 | 0.00 | 0.00 | 0.00 | 1018.1 | |
| 20260906050511 | 69 | 62 | 0.9 | 3.5 | 0.00 | 0.00 | 0.00 | 1018.1 | |
| 20260906050033 | 69 | 13 | 1.7 | 3.5 | 0.00 | 0.00 | 0.00 | 1018.1 | |
| 20260906045513 | 69 | 22 | 0.9 | 2.6 | 0.00 | 0.00 | 0.00 | 89 | 1018.1 |
| 20260906045004 | 69 | 9 | 0.0 | 1.7 | 0.00 | 0.00 | 0.00 | 89 | 1018.0 |
| 20260906044527 | 69 | 28 | 0.0 | 1.7 | 0.00 | 0.00 | 0.00 | 88 | 1017.9 |
| 20260906044010 | 69 | 63 | 0.0 | 2.6 | 0.00 | 0.00 | 0.00 | 88 | 1017.7 |
| 20260906043507 | 69 | 52 | 0.0 | 2.6 | 0.00 | 0.00 | 0.00 | 88 | 1017.6 |
| 20260906043030 | 70 | 93 | 0.0 | 2.6 | 0.00 | 0.00 | 0.00 | 88 | 1017.6 |
| 20260906042507 | 70 | 36 | 0.9 | 7.0 | 0.00 | 0.00 | 0.00 | 87 | 1017.7 |
| 20260906042015 | 70 | 22 | 1.7 | 7.0 | 0.00 | 0.00 | 0.00 | 87 | 1017.7 |
| 20260906041525 | 70 | 17 | 1.7 | 4.3 | 0.00 | 0.00 | 0.00 | 87 | 1017.7 |
| 20260906041008 | 70 | 55 | 0.9 | 7.0 | 0.00 | 0.00 | 0.00 | 87 | 1017.7 |
| 20260906040513 | 70 | 53 | 1.7 | 7.0 | 0.00 | 0.00 | 0.00 | 87 | 1017.7 |
| 20260906040022 | 70 | 43 | 0.9 | 4.3 | 0.00 | 0.00 | 0.00 | 87 | 1017.6 |
| 20260906035504 | 70 | 352 | 1.7 | 4.3 | 0.00 | 0.00 | 0.00 | 86 | 1017.5 |
| 20260906035014 | 70 | 39 | 0.9 | 7.8 | 0.00 | 0.00 | 0.00 | 86 | 1017.4 |
| 20260906034527 | 70 | 95 | 1.7 | 7.8 | 0.00 | 0.00 | 0.00 | 86 | 1017.5 |
| 20260906034015 | 70 | 30 | 1.7 | 7.8 | 0.00 | 0.00 | 0.00 | 86 | 1017.3 |
| 20260906033512 | 71 | 59 | 2.6 | 7.8 | 0.00 | 0.00 | 0.00 | 86 | 1017.1 |
| 20260906033012 | 71 | 38 | 2.6 | 7.0 | 0.00 | 0.00 | 0.00 | 86 | 1017.2 |
| 20260906032515 | 71 | 58 | 2.6 | 10.4 | 0.00 | 0.00 | 0.00 | 85 | 1017.1 |
| 20260906032009 | 71 | 87 | 3.5 | 10.4 | 0.00 | 0.00 | 0.00 | 86 | 1017.0 |
| 20260906031515 | 71 | 14 | 0.9 | 7.0 | 0.00 | 0.00 | 0.00 | 86 | 1016.9 |
| 20260906031013 | 71 | 15 | 1.7 | 7.0 | 0.00 | 0.00 | 0.00 | 85 | 1016.7 |
| 20260906030510 | 72 | 9 | 0.9 | 4.3 | 0.00 | 0.00 | 0.00 | 86 | 1016.7 |
| 20260906030034 | 72 | 107 | 1.7 | 4.3 | 0.00 | 0.00 | 0.00 | 85 | 1016.7 |
| 20260906025519 | 72 | 30 | 0.9 | 4.3 | 0.00 | 0.00 | 0.00 | 85 | 1016.9 |
| 20260906025006 | 72 | 26 | 0.0 | 5.2 | 0.00 | 0.00 | 0.00 | 85 | 1016.9 |
| 20260906024536 | 72 | 169 | 1.7 | 5.2 | 0.00 | 0.00 | 0.00 | 85 | 1016.8 |
| 20260906024012 | 73 | 103 | 0.0 | 4.3 | 0.00 | 0.00 | 0.00 | 86 | 1016.7 |
| 20260906023510 | 73 | 92 | 0.0 | 5.2 | 0.00 | 0.00 | 0.00 | 86 | 1016.6 |
| 20260906023030 | 73 | 116 | 0.9 | 6.1 | 0.00 | 0.00 | 0.00 | 86 | 1016.5 |
| 20260906022510 | 73 | 126 | 0.0 | 6.1 | 0.00 | 0.00 | 0.00 | 86 | 1016.5 |
| 20260906022016 | 73 | 34 | 0.9 | 3.5 | 0.00 | 0.00 | 0.00 | 86 | 1016.4 |
| 20260906021531 | 73 | 52 | 1.7 | 3.5 | 0.00 | 0.00 | 0.00 | 86 | 1016.3 |
| 20260906021007 | 73 | 44 | 0.9 | 3.5 | 0.00 | 0.00 | 0.00 | 86 | 1016.1 |
| 20260906020514 | 73 | 33 | 0.0 | 3.5 | 0.00 | 0.00 | 0.00 | 85 | 1016.1 |
| 20260906020024 | 74 | 67 | 0.9 | 3.5 | 0.00 | 0.00 | 0.00 | 85 | 1016.1 |
| 20260906015506 | 74 | 42 | 0.9 | 5.2 | 0.00 | 0.00 | 0.00 | 85 | 1016.1 |
| 20260906015013 | 74 | 76 | 1.7 | 5.2 | 0.00 | 0.00 | 0.00 | 85 | 1016.1 |
| 20260906014519 | 74 | 57 | 0.9 | 4.3 | 0.00 | 0.00 | 0.00 | 84 | 1016.1 |
| 20260906014018 | 74 | 60 | 0.9 | 4.3 | 0.00 | 0.00 | 0.00 | 84 | 1016.1 |
| 20260906013514 | 74 | 49 | 0.9 | 3.5 | 0.00 | 0.00 | 0.00 | 84 | 1016.1 |
| 20260906013017 | 74 | 5 | 0.9 | 4.3 | 0.00 | 0.00 | 0.00 | 84 | 1015.9 |
| 20260906012516 | 74 | 63 | 0.9 | 3.5 | 0.00 | 0.00 | 0.00 | 83 | 1015.8 |
| 20260906012010 | 74 | 21 | 0.9 | 5.2 | 0.00 | 0.00 | 0.00 | 83 | 1015.8 |
| 20260906011513 | 75 | 43 | 0.9 | 7.8 | 0.00 | 0.00 | 0.00 | 83 | 1015.9 |
| 20260906011016 | 75 | 37 | 0.9 | 7.8 | 0.00 | 0.00 | 0.00 | 82 | 1015.8 |
| 20260906010507 | 75 | 34 | 1.7 | 4.3 | 0.00 | 0.00 | 0.00 | 82 | 1015.8 |
| 20260906010037 | 75 | 32 | 1.7 | 4.3 | 0.00 | 0.00 | 0.00 | 82 | 1015.9 |
| 20260906005513 | 75 | 53 | 1.7 | 3.5 | 0.00 | 0.00 | 0.00 | 81 | 1016.0 |
| 20260906005010 | 75 | 42 | 1.7 | 4.3 | 0.00 | 0.00 | 0.00 | 81 | 1016.0 |
| 20260906004533 | 75 | 63 | 0.9 | 4.3 | 0.00 | 0.00 | 0.00 | 81 | 1015.9 |
| 20260906004012 | 75 | 34 | 0.9 | 4.3 | 0.00 | 0.00 | 0.00 | 81 | 1015.9 |
| 20260906003506 | 75 | 32 | 0.9 | 1.7 | 0.00 | 0.00 | 0.00 | 80 | 1015.8 |
| 20260906003028 | 75 | 348 | 0.0 | 1.7 | 0.00 | 0.00 | 0.00 | 80 | 1015.9 |
| 20260906002510 | 76 | 321 | 0.0 | 1.7 | 0.00 | 0.00 | 0.00 | 79 | 1015.9 |
| 20260906002017 | 76 | 9 | 0.0 | 1.7 | 0.00 | 0.00 | 0.00 | 79 | 1015.9 |
| 20260906001543 | 76 | 5 | 0.0 | 1.7 | 0.00 | 0.00 | 0.00 | 79 | 1016.0 |
| 20260906001008 | 76 | 352 | 0.0 | 1.7 | 0.00 | 0.00 | 0.00 | 79 | 1016.0 |
| 20260906000516 | 76 | 333 | 0.0 | 1.7 | 0.00 | 0.00 | 0.00 | 78 | 1016.0 |
| 20260906000027 | 76 | 34 | 0.9 | 1.7 | 0.00 | 0.00 | 0.00 | 78 | 1016.0 |
| 20260905235507 | 76 | 19 | 0.9 | 1.7 | 0.00 | 0.00 | 0.00 | 77 | 1016.1 |
| 20260905235016 | 77 | 33 | 0.9 | 3.5 | 0.00 | 0.00 | 0.00 | 77 | 1016.1 |
| 20260905234523 | 77 | 360 | 0.9 | 3.5 | 0.00 | 0.00 | 0.00 | 77 | 1016.1 |
| 20260905234014 | 77 | 34 | 0.9 | 3.5 | 0.00 | 0.00 | 0.00 | 76 | 1016.0 |
| 20260905233515 | 77 | 28 | 0.9 | 4.3 | 0.00 | 0.00 | 0.00 | 76 | 1016.1 |
| 20260905233023 | 78 | 35 | 0.9 | 4.3 | 0.00 | 0.00 | 0.00 | 75 | 1016.2 |
| 20260905232520 | 78 | 351 | 0.0 | 3.5 | 0.00 | 0.00 | 0.00 | 74 | 1016.2 |
| 20260905232013 | 79 | 13 | 0.9 | 4.3 | 0.00 | 0.00 | 0.00 | 73 | 1016.1 |
| 20260905231517 | 79 | 24 | 1.7 | 7.8 | 0.00 | 0.00 | 0.00 | 72 | 1016.1 |
| 20260905231019 | 80 | 34 | 2.6 | 7.8 | 0.00 | 0.00 | 0.00 | 71 | 1016.2 |
| 20260905230511 | 80 | 38 | 2.6 | 4.3 | 0.00 | 0.00 | 0.00 | 72 | 1016.1 |
| 20260905230037 | 80 | 40 | 2.6 | 7.8 | 0.00 | 0.00 | 0.00 | 73 | 1016.1 |
| 20260905225520 | 80 | 28 | 2.6 | 7.8 | 0.00 | 0.00 | 0.00 | 72 | 1016.1 |
| 20260905225008 | 80 | 61 | 3.5 | 7.8 | 0.00 | 0.00 | 0.00 | 73 | 1016.1 |
| 20260905224532 | 80 | 43 | 1.7 | 8.7 | 0.00 | 0.00 | 0.00 | 73 | 1016.1 |
| 20260905224012 | 80 | 322 | 2.6 | 8.7 | 0.00 | 0.00 | 0.00 | 73 | 1016.0 |
| 20260905223508 | 81 | 348 | 2.6 | 7.8 | 0.00 | 0.00 | 0.00 | 72 | 1016.0 |
| 20260905223045 | 81 | 46 | 3.5 | 7.8 | 0.00 | 0.00 | 0.00 | 72 | 1016.0 |
| 20260905222512 | 80 | 360 | 0.9 | 5.2 | 0.00 | 0.00 | 0.00 | 74 | 1016.0 |
| 20260905222017 | 80 | 11 | 0.9 | 7.0 | 0.00 | 0.00 | 0.00 | 74 | 1016.1 |
| 20260905221530 | 80 | 32 | 1.7 | 7.8 | 0.00 | 0.00 | 0.00 | 73 | 1015.9 |
| 20260905221011 | 80 | 39 | 2.6 | 7.8 | 0.00 | 0.00 | 0.00 | 74 | 1015.8 |
| 20260905220519 | 81 | 15 | 1.7 | 6.1 | 0.00 | 0.00 | 0.00 | 73 | 1015.8 |
| 20260905220030 | 81 | 9 | 2.6 | 6.1 | 0.00 | 0.00 | 0.00 | 72 | 1015.6 |
| 20260905215508 | 82 | 42 | 2.6 | 5.2 | 0.00 | 0.00 | 0.00 | 71 | 1015.6 |
| 20260905215016 | 82 | 338 | 2.6 | 6.1 | 0.00 | 0.00 | 0.00 | 71 | 1015.5 |
| 20260905214527 | 81 | 13 | 1.7 | 8.7 | 0.00 | 0.00 | 0.00 | 72 | 1015.6 |
| 20260905214017 | 81 | 68 | 2.6 | 8.7 | 0.00 | 0.00 | 0.00 | 72 | 1015.6 |
| 20260905213514 | 81 | 24 | 1.7 | 6.1 | 0.00 | 0.00 | 0.00 | 72 | 1015.6 |
| 20260905213023 | 81 | 40 | 1.7 | 5.2 | 0.00 | 0.00 | 0.00 | 73 | 1015.6 |
| 20260905212519 | 80 | 40 | 2.6 | 5.2 | 0.00 | 0.00 | 0.00 | 74 | 1015.7 |
| 20260905212017 | 79 | 314 | 0.9 | 4.3 | 0.00 | 0.00 | 0.00 | 76 | 1015.7 |
| 20260905211520 | 79 | 16 | 2.6 | 4.3 | 0.00 | 0.00 | 0.00 | 76 | 1015.8 |
| 20260905211018 | 79 | 72 | 1.7 | 5.2 | 0.00 | 0.00 | 0.00 | 77 | 1015.8 |
| 20260905210511 | 79 | 327 | 0.9 | 5.2 | 0.00 | 0.00 | 0.00 | 77 | 1015.8 |
| 20260905210045 | 78 | 76 | 1.7 | 5.2 | 0.00 | 0.00 | 0.00 | 77 | 1015.8 |
| 20260905205517 | 78 | 306 | 2.6 | 5.2 | 0.00 | 0.00 | 0.00 | 77 | 1015.9 |
| 20260905205011 | 78 | 342 | 1.7 | 5.2 | 0.00 | 0.00 | 0.00 | 78 | 1015.9 |
| 20260905204534 | 78 | 29 | 2.6 | 7.0 | 0.00 | 0.00 | 0.00 | 78 | 1015.9 |
| 20260905204016 | 78 | 5 | 2.6 | 7.0 | 0.00 | 0.00 | 0.00 | 78 | 1016.0 |
| 20260905203511 | 79 | 17 | 1.7 | 7.8 | 0.00 | 0.00 | 0.00 | 79 | 1016.0 |
| 20260905203032 | 78 | 5 | 3.5 | 7.8 | 0.00 | 0.00 | 0.00 | 78 | 1015.9 |
| 20260905202513 | 78 | 63 | 2.6 | 7.8 | 0.00 | 0.00 | 0.00 | 79 | 1015.8 |
| 20260905202017 | 78 | 14 | 1.7 | 7.8 | 0.00 | 0.00 | 0.00 | 78 | 1015.9 |
| 20260905201532 | 78 | 41 | 2.6 | 7.0 | 0.00 | 0.00 | 0.00 | 79 | 1016.0 |
| 20260905201011 | 78 | 39 | 2.6 | 7.8 | 0.00 | 0.00 | 0.00 | 78 | 1016.1 |
| 20260905200520 | 79 | 5 | 3.5 | 7.8 | 0.00 | 0.00 | 0.00 | 77 | 1016.1 |
| 20260905200039 | 79 | 312 | 2.6 | 7.0 | 0.00 | 0.00 | 0.00 | 77 | 1016.1 |
| 20260905195509 | 79 | 57 | 1.7 | 7.0 | 0.00 | 0.00 | 0.00 | 78 | 1016.1 |
| 20260905195015 | 79 | 323 | 2.6 | 7.0 | 0.00 | 0.00 | 0.00 | 78 | 1016.2 |
| 20260905194530 | 79 | 346 | 1.7 | 7.8 | 0.00 | 0.00 | 0.00 | 79 | 1016.1 |
| 20260905194018 | 78 | 291 | 0.9 | 7.8 | 0.00 | 0.00 | 0.00 | 79 | 1016.2 |
| 20260905193515 | 78 | 37 | 3.5 | 7.8 | 0.00 | 0.00 | 0.00 | 79 | 1016.2 |
| 20260905193027 | 79 | 60 | 1.7 | 8.7 | 0.00 | 0.00 | 0.00 | 79 | 1016.3 |
| 20260905192517 | 78 | 335 | 2.6 | 8.7 | 0.00 | 0.00 | 0.00 | 79 | 1016.2 |
| 20260905192015 | 79 | 46 | 2.6 | 5.2 | 0.00 | 0.00 | 0.00 | 79 | 1016.2 |
| 20260905191526 | 78 | 328 | 2.6 | 6.1 | 0.00 | 0.00 | 0.00 | 80 | 1016.2 |
| 20260905191017 | 78 | 360 | 1.7 | 8.7 | 0.00 | 0.00 | 0.00 | 80 | 1016.2 |
| 20260905190514 | 78 | 24 | 1.7 | 8.7 | 0.00 | 0.00 | 0.00 | 80 | 1016.2 |
| 20260905190034 | 78 | 53 | 1.7 | 7.8 | 0.00 | 0.00 | 0.00 | 79 | 1016.1 |
| 20260905185516 | 79 | 59 | 3.5 | 7.8 | 0.00 | 0.00 | 0.00 | 79 | 1016.1 |
| 20260905185011 | 79 | 42 | 2.6 | 8.7 | 0.00 | 0.00 | 0.00 | 79 | 1016.1 |
| 20260905184540 | 79 | 60 | 2.6 | 9.6 | 0.00 | 0.00 | 0.00 | 79 | 1016.1 |
| 20260905184013 | 79 | 10 | 4.3 | 9.6 | 0.00 | 0.00 | 0.00 | 79 | 1016.1 |
| 20260905183510 | 79 | 48 | 3.5 | 8.7 | 0.00 | 0.00 | 0.00 | 78 | 1016.1 |
| 20260905183039 | 80 | 50 | 2.6 | 7.0 | 0.00 | 0.00 | 0.00 | 79 | 1016.2 |
| 20260905182515 | 80 | 24 | 3.5 | 7.0 | 0.00 | 0.00 | 0.00 | 79 | 1016.2 |
| 20260905182017 | 80 | 351 | 2.6 | 10.4 | 0.00 | 0.00 | 0.00 | 79 | 1016.1 |
| 20260905181535 | 80 | 352 | 1.7 | 10.4 | 0.00 | 0.00 | 0.00 | 79 | 1016.2 |
| 20260905181012 | 80 | 53 | 2.6 | 9.6 | 0.00 | 0.00 | 0.00 | 79 | 1016.2 |
| 20260905180519 | 80 | 24 | 4.3 | 7.8 | 0.00 | 0.00 | 0.00 | 78 | 1016.2 |
| 20260905180039 | 81 | 337 | 2.6 | 6.1 | 0.00 | 0.00 | 0.00 | 78 | 1016.2 |
| 20260905175516 | 81 | 24 | 1.7 | 7.8 | 0.00 | 0.00 | 0.00 | 79 | 1016.2 |
| 20260905175019 | 81 | 17 | 2.6 | 7.8 | 0.00 | 0.00 | 0.00 | 79 | 1016.3 |
| 20260905174530 | 81 | 338 | 3.5 | 7.8 | 0.00 | 0.00 | 0.00 | 79 | 1016.4 |
| 20260905174015 | 81 | 72 | 1.7 | 7.0 | 0.00 | 0.00 | 0.00 | 79 | 1016.3 |
| 20260905173516 | 81 | 22 | 2.6 | 7.8 | 0.00 | 0.00 | 0.00 | 79 | 1016.3 |
| 20260905173040 | 81 | 33 | 3.5 | 7.8 | 0.00 | 0.00 | 0.00 | 78 | 1016.3 |
| 20260905172515 | 81 | 360 | 4.3 | 9.6 | 0.00 | 0.00 | 0.00 | 77 | 1016.3 |
| 20260905172015 | 82 | 76 | 3.5 | 9.6 | 0.00 | 0.00 | 0.00 | 77 | 1016.2 |
| 20260905171526 | 82 | 15 | 3.5 | 8.7 | 0.00 | 0.00 | 0.00 | 77 | 1016.3 |
| 20260905171007 | 82 | 317 | 4.3 | 8.7 | 0.00 | 0.00 | 0.00 | 77 | 1016.1 |
| 20260905170514 | 82 | 5 | 1.7 | 7.8 | 0.00 | 0.00 | 0.00 | 78 | 1016.1 |
| 20260905170023 | 82 | 42 | 2.6 | 7.0 | 0.00 | 0.00 | 0.00 | 77 | 1016.2 |
| 20260905165516 | 82 | 51 | 3.5 | 5.2 | 0.00 | 0.00 | 0.00 | 76 | 1016.1 |
| 20260905165015 | 82 | 340 | 1.7 | 8.7 | 0.00 | 0.00 | 0.00 | 77 | 1016.2 |
| 20260905164521 | 82 | 17 | 3.5 | 8.7 | 0.00 | 0.00 | 0.00 | 77 | 1016.1 |
| 20260905164014 | 82 | 25 | 3.5 | 7.0 | 0.00 | 0.00 | 0.00 | 78 | 1016.1 |
| 20260905163515 | 82 | 344 | 2.6 | 10.4 | 0.00 | 0.00 | 0.00 | 79 | 1016.2 |
| 20260905163016 | 82 | 324 | 3.5 | 10.4 | 0.00 | 0.00 | 0.00 | 79 | 1016.2 |
| 20260905162515 | 82 | 24 | 1.7 | 5.2 | 0.00 | 0.00 | 0.00 | 80 | 1016.1 |
| 20260905162011 | 81 | 349 | 2.6 | 7.0 | 0.00 | 0.00 | 0.00 | 80 | 1016.1 |
| 20260905161534 | 81 | 71 | 3.5 | 7.8 | 0.00 | 0.00 | 0.00 | 79 | 1016.1 |
| 20260905161015 | 82 | 41 | 2.6 | 7.8 | 0.00 | 0.00 | 0.00 | 78 | 1016.2 |
| 20260905160508 | 81 | 22 | 3.5 | 7.0 | 0.00 | 0.00 | 0.00 | 80 | 1016.1 |
| 20260905160029 | 81 | 54 | 2.6 | 6.1 | 0.00 | 0.00 | 0.00 | 80 | 1016.1 |
| 20260905155514 | 80 | 22 | 2.6 | 7.0 | 0.00 | 0.00 | 0.00 | 82 | 1016.1 |
| 20260905155006 | 79 | 42 | 2.6 | 7.8 | 0.00 | 0.00 | 0.00 | 83 | 1016.0 |
| 20260905154531 | 78 | 20 | 2.6 | 7.8 | 0.00 | 0.00 | 0.00 | 84 | 1016.1 |
| 20260905154012 | 77 | 360 | 2.6 | 5.2 | 0.00 | 0.00 | 0.00 | 85 | 1016.1 |
| 20260905153518 | 77 | 51 | 1.7 | 7.0 | 0.00 | 0.00 | 0.00 | 86 | 1016.2 |
| 20260905153036 | 76 | 44 | 2.6 | 7.8 | 0.00 | 0.00 | 0.00 | 85 | 1016.2 |
| 20260905152511 | 76 | 18 | 3.5 | 7.8 | 0.00 | 0.00 | 0.00 | 86 | 1016.2 |
| 20260905152016 | 76 | 29 | 2.6 | 9.6 | 0.00 | 0.00 | 0.00 | 86 | 1016.2 |
| 20260905151527 | 76 | 29 | 1.7 | 9.6 | 0.00 | 0.00 | 0.00 | 87 | 1016.2 |
| 20260905151008 | 76 | 17 | 2.6 | 8.7 | 0.00 | 0.00 | 0.00 | 86 | 1016.1 |
| 20260905150519 | 76 | 22 | 3.5 | 8.7 | 0.00 | 0.00 | 0.00 | 86 | 1016.1 |
| 20260905150027 | 76 | 307 | 0.9 | 8.7 | 0.00 | 0.00 | 0.00 | 87 | 1015.9 |
| 20260905145518 | 76 | 19 | 3.5 | 8.7 | 0.00 | 0.00 | 0.00 | 87 | 1015.8 |
| 20260905145016 | 76 | 69 | 1.7 | 9.6 | 0.00 | 0.00 | 0.00 | 88 | 1015.7 |
| 20260905144525 | 75 | 5 | 5.2 | 9.6 | 0.00 | 0.00 | 0.00 | 88 | 1015.7 |
| 20260905144016 | 75 | 78 | 2.6 | 7.8 | 0.00 | 0.00 | 0.00 | 89 | 1015.5 |
| 20260905143514 | 75 | 64 | 0.9 | 7.8 | 0.00 | 0.00 | 0.00 | 89 | 1015.5 |
| 20260905143030 | 75 | 360 | 1.7 | 7.8 | 0.00 | 0.00 | 0.00 | 89 | 1015.6 |